Tracking 20383 objects as of 23-Feb-2020
HD Live streaming from Space Station
objects crossing your sky now
Track the group of recently launched Starlink satellites

SL-14 DEB

Track SL-14 DEB now!
10-day predictions


NORAD ID: 29065
Int'l Code: 1978-100AX
Perigee: 1,676.3 km
Apogee: 1,711.8 km
Inclination: 82.5 °
Period: 120.1 minutes
Semi major axis: 8065 km
RCS: 0.015 m2 (small)
Launch date: October 26, 1978
Source: Commonwealth of Independent States (former USSR) (CIS)
Launch site: PLESETSK MISSILE AND SPACE COMPLEX (PKMTR)

Note: This is SATELLITE DEBRIS
aabbcc
Your satellite tracking list
Your tracking list is empty




NASA's NSSDC Master Catalog

Two Line Element Set (TLE):
1 29065U 78100AX  20052.96270378 -.00000019 +00000-0 -34866-3 0  9991
2 29065 082.5358 238.5435 0022007 196.8762 322.7434 11.98654810302716
Source of the keplerian elements: AFSPC